Wind_Speed
15 15 14 13 13 12 11 9 9 9 9 8 7 6 6 6 6 6 6 6 6 6 6 6 6 6 6 6 7 7 8 8 9 9 10 10 11 11 11 12 12 13 13
16 16 15 14 13 13 12 11 10 10 10 9 8 7 7 7 7 7 7 7 6 6 6 7 7 7 8 8 9 9 9 10 11 11 12 12 13 13 13 14 14 14 15
16 16 16 15 15 14 13 12 12 11 10 9 9 8 8 8 8 8 8 8 8 8 8 8 8 8 9 10 11 11 11 12 13 13 13 14 15 15 15 16 16 17 18
16 16 16 16 15 15 14 14 13 12 11 11 10 10 10 9 10 10 10 10 9 9 9 10 10 10 11 11 12 13 14 14 15 15 15 16 17 17 17 17 18 19 19
16 16 16 16 16 16 16 15 13 13 13 12 12 11 11 11 11 11 11 11 10 10 11 11 12 12 13 14 14 15 15 15 16 16 17 17 17 18 18 19 20 20 21
16 16 16 16 16 16 16 15 15 15 14 13 13 13 13 13 13 12 12 12 12 12 12 13 13 14 15 15 16 17 17 17 17 18 18 19 19 20 20 20 21 22 22
17 16 17 17 16 16 16 16 16 15 15 15 15 15 15 15 15 15 15 15 15 15 15 15 16 16 16 17 17 18 18 18 19 19 19 20 20 20 21 21 22 23 24
18 18 17 17 17 17 17 17 16 16 16 16 15 16 17 17 17 16 17 17 18 18 18 18 18 18 18 19 19 19 19 19 20 20 21 22 22 23 24 24 24 25 26
18 17 18 17 17 18 18 18 18 18 17 17 17 17 17 18 18 18 19 19 20 20 20 20 20 20 21 21 21 21 21 22 22 23 23 24 25 26 27 27 27 29 29
18 17 18 18 18 18 19 19 19 18 18 18 18 19 19 20 20 20 20 21 21 21 22 22 22 22 22 22 22 23 24 24 25 25 26 27 27 29 30 30 30 32 32
18 18 18 18 19 19 19 19 19 19 19 19 19 20 20 20 21 21 22 22 22 22 23 23 23 24 24 24 25 26 26 26 27 28 29 30 30 31 33 33 33 34 34
18 19 19 18 18 18 18 18 19 20 20 21 21 21 22 22 22 22 23 23 23 23 23 24 24 25 26 27 27 27 28 28 29 30 31 32 33 34 35 35 34 34 34
18 18 19 19 19 19 19 20 20 21 22 22 22 22 23 23 23 23 24 24 24 24 25 25 26 26 27 28 29 29 30 31 32 32 33 34 35 36 36 35 34 35 35
19 19 20 21 21 21 21 22 22 22 22 23 23 24 24 24 24 24 24 25 25 26 27 27 27 28 29 30 31 31 32 33 34 35 35 36 36 36 36 36 36 37 38
20 20 21 22 23 23 23 23 24 24 25 24 25 25 25 25 25 25 26 27 27 27 28 28 29 30 31 32 33 34 34 35 36 37 37 37 37 37 38 38 38 39 40
21 22 23 23 24 25 25 26 26 26 26 26 26 26 27 27 27 28 28 28 28 29 29 30 31 32 32 33 34 35 36 37 37 38 38 38 38 38 38 39 40 41 43
23 23 24 24 25 26 26 26 27 27 27 27 27 27 28 29 29 30 30 30 30 31 31 32 33 34 34 35 36 36 37 38 38 38 38 38 39 40 41 42 43 44 45
24 24 25 25 26 26 26 26 26 27 27 27 27 28 28 29 30 31 31 31 32 33 33 34 35 36 36 37 38 38 39 39 40 40 40 41 42 43 44 45 46 47 47
23 24 24 25 25 26 27 27 27 27 28 28 29 30 30 31 31 32 33 33 34 35 35 36 37 38 38 39 40 40 41 42 42 42 43 44 45 46 47 47 48 48 49
23 24 24 24 24 25 26 27 27 28 28 29 30 30 31 32 32 33 35 35 36 37 37 38 38 39 40 40 41 41 41 42 43 44 44 45 46 47 47 48 48 49 49
23 24 24 25 25 26 27 28 28 29 30 30 31 32 33 34 35 36 37 38 38 38 39 39 40 41 41 41 41 42 43 44 45 46 47 47 47 48 48 48 49 50 51
25 25 25 26 27 27 28 28 29 30 31 31 32 34 35 35 36 37 38 38 39 39 40 41 41 42 42 43 44 45 46 47 47 47 48 48 48 49 49 50 51 52 52
25 26 26 27 28 28 28 29 30 31 31 33 34 35 35 36 37 38 39 40 40 41 42 43 43 44 44 45 46 46 47 48 48 48 48 49 49 50 50 51 52 52 51
27 28 28 29 30 30 31 31 31 32 33 33 34 35 36 37 39 40 40 40 41 41 42 43 43 44 45 46 46 47 47 47 47 47 48 49 50 51 51 51 51 50 51
29 30 30 31 31 31 32 33 33 34 34 36 37 37 38 39 40 40 41 42 42 42 42 42 43 43 44 44 45 45 46 47 47 48 49 49 49 49 50 50 50 50 50
31 31 32 32 33 33 33 34 34 35 36 37 38 39 40 40 41 42 41 41 40 40 41 41 42 42 43 43 44 45 46 47 47 48 48 49 49 49 49 49 49 48 48
Wind_Direction
234 232 234 237 238 239 243 247 250 251 248 248 251 253 257 265 274 279 283 287 285 281 280 281 284 286 290 293 291 289 290 289 288 287 286 285 287 283 277 277 279 278 279
233 233 235 236 237 239 240 247 251 251 246 248 252 253 258 262 269 277 280 280 281 281 279 278 283 288 288 288 287 288 290 289 289 288 286 285 288 288 283 280 282 281 281
233 236 235 235 237 238 242 244 248 251 249 252 256 257 260 263 271 277 278 277 277 279 279 278 281 285 289 289 288 286 287 288 290 289 288 287 288 288 286 284 283 285 284
234 237 235 235 236 239 243 244 244 247 251 254 256 259 262 267 272 274 273 275 274 276 277 279 283 286 288 289 289 289 287 286 288 290 289 287 286 287 286 284 283 284 285
235 238 238 237 237 239 243 242 244 247 251 256 255 257 263 268 271 271 271 274 273 274 277 281 283 286 288 290 290 291 291 291 291 292 291 290 289 289 287 286 286 286 287
236 239 239 240 239 239 242 241 245 248 251 255 256 260 264 268 270 271 273 273 273 274 277 281 285 288 289 291 289 289 288 290 291 291 289 290 289 289 288 288 288 288 289
237 239 239 240 242 241 243 245 248 251 255 257 259 262 265 268 269 270 271 274 275 275 278 281 284 287 289 292 290 288 288 288 289 290 290 290 290 290 289 289 289 290 290
240 241 242 242 243 243 243 246 251 255 259 259 264 266 266 267 268 270 273 274 274 276 278 280 282 284 286 287 288 288 288 288 289 290 290 290 290 289 288 289 289 290 291
239 240 242 244 246 247 246 249 253 258 259 262 266 269 270 270 270 272 274 275 276 277 279 280 281 283 285 287 287 287 287 287 288 290 291 290 289 288 287 289 288 289 290
239 241 243 246 248 250 251 251 255 258 261 265 268 271 272 273 273 274 275 277 277 277 278 279 280 283 284 286 287 288 289 289 289 290 291 290 289 289 288 290 290 290 291
241 242 246 250 251 252 254 254 256 260 262 265 269 272 274 275 275 276 278 279 278 278 277 278 279 281 283 285 287 288 289 290 290 291 292 292 291 289 289 291 291 290 290
242 244 249 253 254 256 257 258 260 263 265 268 272 274 275 276 276 278 278 279 279 279 279 279 280 280 282 285 287 288 289 290 291 291 292 292 291 290 289 290 291 290 290
246 250 251 253 255 258 260 263 265 266 267 269 272 273 274 275 277 278 278 280 280 279 280 279 281 282 284 286 287 288 289 290 291 291 291 292 292 291 290 290 290 290 290
250 251 252 255 258 261 263 267 268 268 270 271 272 273 273 274 276 278 280 280 279 280 280 280 281 283 284 286 287 288 289 290 291 291 292 292 292 291 290 290 290 290 290
253 254 256 257 260 263 265 267 269 268 270 272 273 273 274 274 276 278 279 280 280 280 281 281 282 283 284 285 287 288 289 290 291 291 292 292 291 291 291 291 291 291 291
258 259 260 261 262 265 267 268 268 269 269 270 271 272 274 275 276 278 279 280 280 281 281 282 284 285 285 286 288 289 290 291 292 293 293 292 291 291 291 290 291 291 291
260 261 262 263 264 264 266 268 269 269 269 271 273 274 275 276 277 278 279 280 282 283 283 284 285 286 287 288 288 289 290 292 292 293 293 293 293 292 292 291 291 292 292
260 262 264 264 263 264 267 268 270 270 270 272 274 275 276 278 278 279 281 282 283 283 283 284 286 286 287 288 288 289 290 291 292 292 292 293 293 293 293 292 292 292 293
262 264 266 267 266 266 268 270 271 271 272 274 276 277 279 280 280 281 282 282 284 284 284 285 286 286 287 288 289 290 290 291 291 291 291 292 293 293 293 293 293 293 293
263 264 265 268 269 269 270 272 272 273 274 275 277 279 281 281 281 282 284 284 285 286 285 286 287 287 288 289 290 290 291 292 291 291 292 292 293 294 294 294 293 293 293
264 266 267 269 270 273 274 273 274 274 275 277 278 280 282 283 283 284 285 285 286 286 286 286 287 288 289 289 290 291 292 292 292 292 293 293 293 294 294 294 294 294 293
266 268 270 271 273 275 277 276 276 276 277 278 280 281 283 284 285 286 286 286 286 286 287 287 287 288 288 289 290 291 292 292 293 293 293 293 293 293 293 294 294 294 294
268 270 272 274 275 276 277 278 279 278 279 280 281 282 284 285 286 286 286 285 286 286 286 287 288 288 289 290 291 292 292 293 293 293 293 293 293 294 294 294 294 294 294
271 272 274 276 277 278 278 279 279 279 280 282 283 285 286 287 288 288 288 288 288 287 287 288 288 289 290 291 292 293 293 294 294 294 294 294 294 295 295 295 295 295 294
274 275 276 277 278 279 279 279 280 282 282 283 284 286 287 287 287 288 289 290 289 289 289 290 290 290 291 292 293 293 293 294 295 295 295 296 296 296 295 295 295 295 295
276 276 276 277 278 279 280 281 282 283 284 285 286 286 287 287 289 289 290 290 290 290 291 291 292 292 292 293 293 293 293 294 295 296 296 296 296 296 296 296 296 296 296
Height
5867 5869 5870 5871 5871 5872 5873 5873 5874 5874 5874 5874 5874 5874 5873 5873 5872 5872 5872 5871 5871 5870 5870 5869 5869 5868 5867 5866 5866 5865 5864 5863 5862 5861 5860 5859 5858 5856 5856 5855 5855 5854 5853
5864 5866 5867 5868 5869 5870 5871 5871 5872 5872 5872 5872 5872 5872 5872 5871 5871 5871 5870 5869 5869 5869 5868 5868 5867 5866 5866 5865 5864 5863 5862 5861 5860 5858 5857 5856 5855 5854 5853 5852 5851 5851 5850
5861 5862 5864 5865 5866 5867 5868 5869 5869 5870 5870 5870 5870 5870 5870 5869 5869 5869 5868 5868 5867 5867 5866 5866 5865 5865 5864 5863 5862 5861 5859 5858 5857 5855 5854 5853 5852 5850 5849 5849 5848 5847 5845
5858 5859 5860 5862 5863 5864 5865 5866 5866 5867 5867 5867 5867 5868 5868 5867 5867 5866 5866 5865 5865 5865 5864 5863 5863 5862 5861 5860 5859 5858 5856 5855 5853 5852 5851 5849 5848 5846 5845 5844 5843 5842 5841
5854 5856 5857 5858 5860 5861 5862 5862 5863 5864 5864 5865 5865 5865 5865 5865 5864 5864 5863 5863 5862 5862 5861 5861 5860 5859 5858 5857 5856 5854 5853 5851 5850 5848 5847 5845 5844 5842 5841 5840 5838 5837 5836
5850 5852 5853 5855 5856 5857 5858 5859 5860 5861 5861 5862 5862 5862 5862 5861 5861 5861 5860 5860 5859 5859 5858 5858 5857 5856 5855 5854 5852 5851 5849 5848 5846 5844 5842 5841 5839 5837 5836 5834 5833 5832 5830
5847 5848 5850 5851 5852 5853 5854 5856 5856 5857 5857 5858 5858 5858 5858 5858 5858 5857 5857 5856 5856 5855 5855 5854 5853 5852 5851 5849 5848 5846 5845 5843 5841 5840 5838 5836 5834 5832 5830 5829 5827 5825 5824
5843 5844 5846 5847 5848 5849 5850 5851 5852 5853 5853 5854 5854 5854 5854 5854 5853 5853 5853 5852 5851 5851 5850 5849 5848 5847 5846 5845 5843 5841 5840 5838 5836 5834 5832 5830 5828 5826 5824 5822 5820 5819 5817
5839 5840 5842 5843 5844 5845 5846 5847 5848 5849 5849 5849 5850 5850 5849 5849 5849 5848 5848 5847 5847 5846 5845 5844 5843 5842 5841 5839 5838 5836 5834 5832 5830 5828 5826 5823 5821 5819 5817 5815 5813 5811 5809
5835 5836 5837 5839 5840 5841 5841 5842 5844 5844 5844 5845 5845 5845 5844 5844 5844 5843 5843 5842 5841 5840 5839 5838 5837 5836 5835 5833 5832 5830 5828 5826 5824 5822 5819 5817 5814 5812 5809 5807 5804 5802 5800
5830 5832 5833 5834 5835 5836 5837 5838 5839 5839 5839 5840 5839 5839 5839 5838 5838 5837 5837 5836 5835 5834 5833 5832 5831 5830 5828 5827 5825 5823 5821 5818 5816 5814 5811 5809 5806 5803 5800 5797 5795 5792 5790
5826 5827 5828 5829 5830 5831 5832 5833 5833 5834 5834 5834 5834 5833 5833 5832 5832 5831 5830 5829 5828 5827 5826 5825 5824 5822 5821 5819 5817 5815 5813 5811 5808 5806 5803 5800 5797 5794 5791 5788 5785 5782 5780
5821 5822 5823 5824 5825 5826 5827 5827 5828 5828 5828 5828 5828 5827 5827 5826 5825 5824 5824 5823 5821 5820 5819 5818 5816 5815 5813 5811 5809 5807 5805 5802 5800 5797 5794 5791 5787 5784 5781 5778 5775 5772 5770
5816 5817 5818 5819 5820 5820 5821 5821 5821 5822 5821 5821 5821 5820 5820 5819 5819 5818 5817 5815 5814 5813 5811 5810 5809 5807 5805 5803 5801 5798 5796 5793 5790 5787 5784 5781 5777 5774 5771 5768 5765 5762 5759
5811 5811 5812 5813 5814 5814 5815 5815 5815 5815 5815 5815 5814 5813 5813 5812 5811 5810 5809 5808 5806 5805 5803 5802 5800 5798 5796 5794 5791 5789 5786 5783 5780 5777 5773 5770 5766 5763 5760 5757 5754 5751 5748
5805 5805 5806 5807 5807 5807 5807 5807 5807 5807 5807 5807 5806 5806 5805 5804 5803 5802 5801 5799 5798 5796 5795 5793 5791 5789 5787 5784 5782 5779 5776 5773 5769 5766 5763 5759 5756 5753 5749 5746 5743 5739 5736
5799 5799 5799 5800 5800 5800 5800 5800 5800 5799 5799 5799 5798 5797 5797 5796 5795 5793 5792 5790 5789 5787 5785 5783 5781 5779 5777 5774 5771 5768 5765 5762 5758 5755 5752 5749 5745 5742 5738 5734 5731 5727 5723
5791 5792 5792 5792 5792 5792 5792 5792 5792 5791 5791 5790 5790 5789 5788 5787 5786 5784 5783 5781 5780 5778 5775 5773 5771 5768 5766 5763 5760 5757 5754 5751 5747 5744 5740 5737 5733 5729 5725 5722 5718 5713 5709
5784 5785 5785 5785 5784 5784 5784 5784 5783 5783 5783 5782 5781 5780 5779 5778 5776 5775 5773 5771 5769 5767 5765 5762 5760 5757 5755 5752 5749 5746 5742 5739 5735 5732 5728 5724 5720 5716 5712 5708 5703 5699 5694
5777 5777 5777 5777 5777 5777 5776 5776 5775 5775 5774 5774 5773 5772 5770 5768 5767 5765 5763 5761 5759 5756 5754 5751 5749 5746 5743 5740 5737 5733 5730 5726 5723 5719 5715 5711 5706 5702 5698 5693 5688 5684 5679
5769 5769 5769 5769 5769 5769 5768 5767 5767 5766 5765 5764 5763 5762 5760 5758 5756 5754 5752 5750 5747 5745 5742 5740 5737 5734 5731 5728 5724 5721 5717 5713 5709 5705 5701 5697 5692 5688 5683 5678 5673 5669 5664
5761 5761 5761 5761 5760 5760 5759 5758 5757 5756 5756 5754 5753 5752 5750 5748 5746 5743 5741 5738 5736 5733 5730 5727 5724 5721 5718 5715 5711 5707 5703 5699 5695 5691 5686 5682 5677 5673 5668 5663 5658 5653 5648
5753 5753 5753 5752 5752 5751 5750 5749 5748 5747 5746 5744 5743 5741 5739 5737 5734 5731 5729 5726 5723 5720 5717 5714 5711 5708 5704 5701 5697 5693 5689 5685 5680 5676 5671 5667 5662 5658 5653 5648 5643 5638 5633
5744 5744 5744 5743 5742 5741 5740 5739 5738 5737 5735 5734 5732 5730 5728 5725 5722 5719 5716 5713 5710 5707 5704 5701 5697 5694 5690 5686 5683 5678 5674 5670 5665 5661 5656 5652 5647 5642 5637 5633 5628 5623 5618
5735 5734 5734 5733 5732 5731 5730 5729 5728 5726 5725 5723 5721 5718 5716 5713 5710 5707 5704 5701 5697 5694 5691 5687 5684 5680 5676 5673 5669 5664 5660 5655 5651 5646 5642 5637 5632 5627 5622 5618 5613 5608 5603
5725 5724 5724 5723 5722 5721 5720 5718 5717 5715 5713 5711 5709 5706 5703 5700 5697 5694 5691 5688 5684 5681 5677 5674 5671 5667 5663 5659 5655 5651 5646 5642 5637 5632 5627 5623 5618 5613 5608 5603 5598 5593 5589